Dunkirk, NY

6:08 AM EDT on May 27, 2017 (GMT -0400)
Chautauqua County-Dunkirk

Weather History for KDKK - March, 2014

Change the Weather History Date:

Saturday, March 29, 2014

  Actual Average Record
Temperature  
Mean Temperature 36 °F -  
Max Temperature 42 °F 54 °F 79 °F (1977)
Min Temperature 30 °F 33 °F 12 °F (1982)
Degree Days  
Heating Degree Days 30    
Moisture  
Dew Point 31 °F    
Average Humidity 87    
Maximum Humidity 96    
Minimum Humidity 73    
Precipitation  
Precipitation 0.49 in - - ()
Sea Level Pressure  
Sea Level Pressure 30.05 in    
Wind  
Wind Speed 10 mph (NE)    
Max Wind Speed 18 mph    
Max Gust Speed 29 mph    
Visibility 6 miles    
Events Fog , Rain , Snow    
Averages and records for this station are not official NWS values.
T = Trace of Precipitation, MM = Missing Value Source: NWS Daily Summary

Daily Weather History Graph

Daily Weather History Graph

Search for Another Location

Airport or City:

Trip Planner

Search our weather history database for the weather conditions in past years. The results will help you decide how hot, cold, wet, or windy it might be!

Date:

Astronomy

Mar. 29, 2014 Rise Set
Actual Time 7:04 AM EDT 7:39 PM EDT
Civil Twilight 6:36 AM EDT 8:07 PM EDT
Nautical Twilight 6:03 AM EDT 8:41 PM EDT
Astronomical Twilight 5:28 AM EDT 9:16 PM EDT
Moon 6:13 AM EDT (3/29) 6:42 PM EDT (3/29)
Length of Visible Light 13h 31m
Length of Day
12h 34m
Waning Crescent, 2% of the Moon is Illuminated
Mar 29
Waning Crescent
Mar 30
New
Apr 7
First Quarter
Apr 15
Full
Apr 22
Last Quarter

Hourly Weather History & Observations

Time (EDT) Temp. Windchill Dew Point Humidity Pressure Visibility Wind Dir Wind Speed Gust Speed Precip Events Conditions
12:53 AM 35.1 °F 32.2 °F 30.9 °F 85% 30.21 in 10.0 mi SSW 3.5 mph - N/A   Overcast
1:53 AM 34.0 °F 31.0 °F 30.9 °F 89% 30.21 in 10.0 mi SE 3.5 mph - N/A   Overcast
2:53 AM 34.0 °F - 30.9 °F 89% 30.22 in 10.0 mi Calm Calm - N/A   Overcast
3:53 AM 35.1 °F 32.2 °F 30.9 °F 85% 30.21 in 10.0 mi ENE 3.5 mph - N/A   Overcast
4:53 AM 36.0 °F 31.1 °F 30.0 °F 79% 30.19 in 10.0 mi NE 5.8 mph - N/A   Overcast
5:53 AM 35.1 °F 31.0 °F 30.9 °F 85% 30.20 in 10.0 mi NE 4.6 mph - N/A   Overcast
6:53 AM 34.0 °F 29.8 °F 30.9 °F 89% 30.20 in 10.0 mi NNE 4.6 mph - N/A   Overcast
7:53 AM 35.1 °F 29.3 °F 30.9 °F 85% 30.20 in 10.0 mi NE 6.9 mph - N/A   Overcast
8:53 AM 36.0 °F 29.0 °F 30.9 °F 82% 30.18 in 10.0 mi NE 9.2 mph - N/A   Overcast
9:53 AM 37.0 °F 31.0 °F 30.9 °F 79% 30.17 in 10.0 mi NE 8.1 mph - N/A   Overcast
10:53 AM 37.9 °F 30.0 °F 30.9 °F 76% 30.15 in 10.0 mi NE 12.7 mph - N/A   Overcast
11:53 AM 37.9 °F 30.0 °F 30.9 °F 76% 30.14 in 10.0 mi NNE 12.7 mph - N/A   Overcast
12:53 PM 39.0 °F 32.3 °F 32.0 °F 76% 30.10 in 10.0 mi NNE 10.4 mph - N/A   Overcast
1:53 PM 41.0 °F 32.8 °F 33.1 °F 73% 30.05 in 10.0 mi NE 16.1 mph - N/A   Overcast
2:53 PM 37.0 °F 27.4 °F 32.0 °F 82% 30.00 in 10.0 mi NNE 17.3 mph 24.2 mph N/A   Overcast
3:26 PM 37.0 °F 28.1 °F 32.0 °F 82% 29.98 in 9.0 mi NNE 15.0 mph - N/A   Overcast
3:34 PM 37.0 °F 27.0 °F 32.0 °F 82% 29.97 in 8.0 mi NNE 18.4 mph 26.5 mph 0.00 in   Overcast
3:53 PM 37.0 °F 27.7 °F 32.0 °F 82% 29.99 in 5.0 mi NNE 16.1 mph 26.5 mph 0.00 in   Overcast
4:53 PM 36.0 °F 26.3 °F 33.1 °F 89% 29.98 in 3.0 mi NE 16.1 mph - 0.05 in Rain Rain
5:06 PM 36.0 °F 27.1 °F 33.1 °F 89% 29.96 in 2.5 mi NNE 13.8 mph 23.0 mph 0.03 in Rain Rain
5:29 PM 34.0 °F 25.0 °F 32.0 °F 92% 29.96 in 2.5 mi NNE 12.7 mph - 0.08 in Rain Rain
5:53 PM 34.0 °F 23.8 °F 30.9 °F 89% 29.98 in 3.0 mi NNE 16.1 mph 25.3 mph 0.12 in Rain Light Rain
6:05 PM 33.1 °F 21.9 °F 30.9 °F 92% 29.96 in 2.5 mi NNE 18.4 mph 26.5 mph 0.02 in Rain Light Rain
6:20 PM 33.1 °F 21.9 °F 30.9 °F 92% 29.96 in 3.0 mi NNE 18.4 mph 28.8 mph 0.04 in Rain Light Rain
6:49 PM 33.8 °F 23.9 °F 30.2 °F 87% 29.97 in 3.0 mi NNE 15.0 mph 25.3 mph 0.09 in Rain Rain
6:53 PM 32.0 °F 21.6 °F 30.0 °F 92% 29.99 in 2.5 mi NE 15.0 mph 23.0 mph 0.10 in Rain Rain
7:01 PM 32.0 °F 20.8 °F 30.0 °F 92% 29.96 in 3.0 mi NE 17.3 mph 25.3 mph 0.01 in   Overcast
7:11 PM 32.0 °F 20.5 °F 30.0 °F 92% 29.96 in 3.0 mi NNE 18.4 mph 27.6 mph 0.03 in Rain Light Freezing Rain
7:26 PM 32.0 °F 21.6 °F 30.0 °F 92% 29.97 in 3.0 mi NNE 15.0 mph 23.0 mph 0.06 in Snow Light Snow
7:41 PM 32.0 °F 21.6 °F 30.0 °F 92% 29.97 in 4.0 mi NNE 15.0 mph 23.0 mph 0.08 in Snow Light Snow
7:53 PM 32.0 °F 21.6 °F 30.0 °F 92% 30.00 in 4.0 mi NNE 15.0 mph - 0.10 in   Overcast
8:17 PM 32.0 °F 21.2 °F 30.0 °F 92% 29.98 in 1.8 mi NNE 16.1 mph 25.3 mph 0.02 in Snow Light Snow
8:31 PM 32.0 °F 20.8 °F 30.0 °F 92% 29.98 in 0.8 mi NNE 17.3 mph 25.3 mph 0.04 in Snow Light Snow
8:53 PM 32.0 °F 21.2 °F 30.0 °F 92% 30.00 in 0.5 mi NNE 16.1 mph 25.3 mph 0.06 in Fog , Snow Snow
9:12 PM 30.9 °F 19.4 °F 30.0 °F 96% 29.97 in 0.5 mi NNE 17.3 mph 27.6 mph 0.01 in Fog , Snow Snow
9:53 PM 30.9 °F 19.4 °F 30.0 °F 96% 29.99 in 0.5 mi NNE 17.3 mph 24.2 mph 0.03 in Fog , Snow Snow
10:53 PM 30.9 °F 19.8 °F 30.0 °F 96% 29.98 in 0.5 mi NNE 16.1 mph 26.5 mph 0.02 in Fog , Snow Snow
11:53 PM 30.9 °F 21.2 °F 30.0 °F 96% 29.97 in 0.8 mi NNE 12.7 mph - 0.01 in Snow Light Snow